EW3714 Weather Reports


Display with metric or nautical units.
time (UTC)temp
F
wind
direction
speed
MPH
gust
MPH
rain 1hr
in
rain 24hr
in
rain mn
in
humidity
%
barometer
mb
20211022200143 89 151 0.0 3.0 0.00 0.00 0.01 50 1013.8
20211022195143 89 206 0.0 2.0 0.00 0.00 0.01 50 1013.9
20211022194143 88 67 0.0 1.0 0.00 0.00 0.01 54 1014.1
20211022193143 88 168 0.0 1.0 0.00 0.00 0.01 55 1014.4
20211022192143 87 192 0.0 0.0 0.00 0.00 0.01 55 1014.5
20211022191143 88 336 0.0 1.0 0.00 0.00 0.01 55 1014.8
20211022190143 87 117 0.0 0.0 0.00 0.00 0.01 57 1015.0
20211022185143 87 327 0.0 1.0 0.00 0.00 0.01 57 1015.2
20211022184143 87 344 0.0 0.0 0.00 0.00 0.01 56 1015.4
20211022183143 88 109 0.0 0.0 0.00 0.00 0.01 54 1015.6
20211022182143 89 304 0.0 0.0 0.00 0.00 0.01 52 1015.7
20211022181143 89 11 0.0 1.0 0.00 0.00 0.01 53 1015.9
20211022180143 89 9 0.0 1.0 0.00 0.00 0.01 53 1016.1
20211022175143 89 213 0.0 0.0 0.00 0.00 0.01 52 1016.3
20211022174143 88 46 0.0 2.0 0.00 0.00 0.01 55 1016.5
20211022173143 88 181 0.0 1.0 0.00 0.00 0.01 56 1016.6
20211022172143 87 331 0.0 0.0 0.00 0.00 0.01 56 1016.7
20211022171143 87 355 0.0 1.0 0.00 0.00 0.01 57 1016.8
20211022170143 86 244 0.0 0.0 0.00 0.00 0.01 59 1017.0
20211022165143 86 257 0.0 0.0 0.00 0.00 0.01 60 1017.0
20211022164143 84 161 0.0 0.0 0.00 0.00 0.01 62 1017.1
20211022163143 83 181 0.0 0.0 0.00 0.00 0.01 64 1017.2
20211022162143 82 132 0.0 1.0 0.00 0.00 0.01 67 1017.3
20211022161143 81 147 0.0 1.0 0.00 0.00 0.01 68 1017.3
20211022160143 80 174 0.0 0.0 0.00 0.00 0.01 72 1017.4
20211022155143 78 189 0.0 0.0 0.00 0.00 0.01 76 1017.4
20211022154143 76 168 0.0 0.0 0.00 0.00 0.01 80 1017.5
20211022153143 74 193 0.0 0.0 0.00 0.00 0.01 85 1017.6
20211022152143 72 337 0.0 0.0 0.00 0.00 0.01 92 1017.6
20211022151143 70 232 0.0 0.0 0.00 0.00 0.01 94 1017.5
20211022150143 69 360 0.0 2.0 0.00 0.00 0.01 95 1017.5
20211022145143 69 66 0.0 0.0 0.00 0.00 0.01 96 1017.5
20211022144145 68 61 0.0 0.0 0.00 0.00 0.01 96 1017.4
20211022143143 67 36 0.0 0.0 0.00 0.00 0.01 96 1017.4
20211022142143 67 36 0.0 0.0 0.00 0.00 0.01 96 1017.2
20211022141143 66 5 0.0 0.0 0.00 0.00 0.01 96 1017.3
20211022140143 66 5 0.0 0.0 0.00 0.00 0.01 96 1017.2
20211022135143 65 152 0.0 0.0 0.00 0.00 0.01 96 1017.1
20211022134144 64 161 0.0 0.0 0.00 0.00 0.01 96 1017.1
20211022133143 64 161 0.0 0.0 0.00 0.00 0.00 95 1017.0
20211022132143 64 161 0.0 0.0 0.00 0.00 0.00 95 1016.8
20211022131143 64 161 0.0 0.0 0.00 0.00 0.00 95 1016.7
20211022130143 64 161 0.0 0.0 0.00 0.00 0.00 95 1016.7
20211022125143 64 161 0.0 0.0 0.00 0.00 0.00 95 1016.8
20211022124143 64 161 0.0 0.0 0.00 0.00 0.00 95 1016.8
20211022123143 64 161 0.0 0.0 0.00 0.00 0.00 95 1016.8
20211022122143 64 161 0.0 0.0 0.00 0.00 0.00 95 1016.7
20211022121143 64 161 0.0 0.0 0.00 0.00 0.00 95 1016.8
20211022120144 64 161 0.0 0.0 0.00 0.00 0.00 95 1016.8
20211022115144 64 161 0.0 0.0 0.00 0.00 0.00 94 1016.6
20211022114143 64 161 0.0 0.0 0.00 0.00 0.00 94 1016.6
20211022113144 64 161 0.0 0.0 0.00 0.00 0.00 94 1016.5
20211022112143 64 161 0.0 0.0 0.00 0.00 0.00 94 1016.4
20211022111143 64 161 0.0 0.0 0.00 0.00 0.00 94 1016.5
20211022110144 64 161 0.0 0.0 0.00 0.00 0.00 94 1016.4
20211022105143 64 161 0.0 0.0 0.00 0.00 0.00 94 1016.3
20211022104144 64 161 0.0 0.0 0.00 0.00 0.00 93 1016.3
20211022103144 64 161 0.0 0.0 0.00 0.00 0.00 93 1016.3
20211022102144 64 161 0.0 0.0 0.00 0.00 0.00 93 1016.3
20211022101143 65 161 0.0 0.0 0.00 0.00 0.00 93 1016.2
20211022100143 65 161 0.0 0.0 0.00 0.00 0.00 93 1016.3
20211022095144 65 161 0.0 0.0 0.00 0.00 0.00 93 1016.2
20211022094144 65 161 0.0 0.0 0.00 0.00 0.00 93 1016.2
20211022093144 65 161 0.0 0.0 0.00 0.00 0.00 93 1016.3
20211022092143 65 161 0.0 0.0 0.00 0.00 0.00 93 1016.3
20211022091144 65 161 0.0 0.0 0.00 0.00 0.00 93 1016.4
20211022090144 65 161 0.0 0.0 0.00 0.00 0.00 93 1016.6
20211022085144 65 161 0.0 0.0 0.00 0.00 0.00 93 1016.5
20211022084144 66 161 0.0 0.0 0.00 0.00 0.00 93 1016.7
20211022083144 66 161 0.0 0.0 0.00 0.00 0.00 93 1016.6
20211022082144 66 161 0.0 0.0 0.00 0.00 0.00 93 1016.6
20211022081144 66 161 0.0 0.0 0.00 0.00 0.00 93 1016.6
20211022080144 66 161 0.0 0.0 0.00 0.00 0.00 92 1016.7
20211022075144 66 161 0.0 0.0 0.00 0.00 0.00 92 1016.7
20211022074144 66 161 0.0 0.0 0.00 0.00 0.00 93 1017.0
20211022073144 66 161 0.0 0.0 0.00 0.00 0.00 92 1017.1
20211022072144 67 161 0.0 0.0 0.00 0.00 0.00 92 1017.2
20211022071144 67 161 0.0 0.0 0.00 0.00 0.00 92 1017.2
20211022070144 67 161 0.0 0.0 0.00 0.00 0.00 92 1017.2
20211022065144 67 161 0.0 0.0 0.00 0.00 0.00 92 1017.3
20211022064144 67 161 0.0 0.0 0.00 0.00 0.00 92 1017.4
20211022063144 67 161 0.0 0.0 0.00 0.00 0.00 91 1017.5
20211022062144 67 161 0.0 0.0 0.00 0.00 0.00 91 1017.5
20211022061144 67 161 0.0 0.0 0.00 0.00 0.00 91 1017.7
20211022060144 67 161 0.0 0.0 0.00 0.00 0.00 91 1017.8
20211022055144 67 161 0.0 0.0 0.00 0.00 0.00 90 1017.8
20211022054144 67 161 0.0 0.0 0.00 0.00 0.00 90 1017.8
20211022053144 67 161 0.0 0.0 0.00 0.00 0.00 90 1018.0
20211022052144 67 161 0.0 0.0 0.00 0.00 0.00 89 1018.2
20211022051144 68 161 0.0 0.0 0.00 0.00 0.00 89 1018.0
20211022050144 68 161 0.0 0.0 0.00 0.00 0.00 89 1018.0
20211022045144 68 161 0.0 0.0 0.00 0.00 0.00 89 1018.0
20211022044144 68 161 0.0 0.0 0.00 0.00 0.00 88 1018.0
20211022043144 68 161 0.0 0.0 0.00 0.00 0.00 88 1018.0
20211022042144 68 161 0.0 0.0 0.00 0.00 0.00 87 1017.9
20211022041144 68 161 0.0 0.0 0.00 0.00 0.00 86 1018.0
20211022040144 69 161 0.0 0.0 0.00 0.00 0.00 86 1017.9
20211022035144 69 161 0.0 0.0 0.00 0.00 0.00 86 1017.8
20211022034144 69 161 0.0 0.0 0.00 0.00 0.00 85 1017.8
20211022033144 69 161 0.0 0.0 0.00 0.00 0.00 84 1017.7
20211022032144 70 161 0.0 0.0 0.00 0.00 0.00 84 1017.7
20211022031146 70 161 0.0 0.0 0.00 0.00 0.00 84 1017.5
20211022030144 70 161 0.0 0.0 0.00 0.00 0.00 83 1017.6
20211022025144 71 161 0.0 0.0 0.00 0.00 0.00 82 1017.6
20211022024144 71 161 0.0 0.0 0.00 0.00 0.00 82 1017.5
20211022023144 71 161 0.0 0.0 0.00 0.00 0.00 81 1017.6
20211022022144 72 161 0.0 0.0 0.00 0.00 0.00 80 1017.7
20211022021144 72 161 0.0 0.0 0.00 0.00 0.00 80 1017.7
20211022020144 73 161 0.0 0.0 0.00 0.00 0.00 78 1017.7
20211022015144 73 161 0.0 0.0 0.00 0.00 0.00 77 1017.5
20211022014144 74 161 0.0 0.0 0.00 0.00 0.00 76 1017.6
20211022013144 74 161 0.0 0.0 0.00 0.00 0.00 76 1017.6
20211022012144 75 161 0.0 0.0 0.00 0.00 0.00 75 1017.5
20211022011144 76 161 0.0 0.0 0.00 0.00 0.00 73 1017.4
20211022010144 76 161 0.0 0.0 0.00 0.00 0.00 72 1017.4
20211022005144 77 161 0.0 0.0 0.00 0.00 0.00 71 1017.4
20211022004144 78 161 0.0 0.0 0.00 0.00 0.00 70 1017.4
20211022003144 78 161 0.0 0.0 0.00 0.00 0.00 68 1017.3
20211022002144 79 161 0.0 0.0 0.00 0.00 0.00 67 1017.1
20211022001144 80 161 0.0 0.0 0.00 0.00 0.00 66 1017.1
20211022000144 80 161 0.0 1.0 0.00 0.00 0.00 65 1017.0
20211021235144 81 162 0.0 1.0 0.00 0.00 0.00 64 1017.0
20211021234144 81 162 0.0 0.0 0.00 0.00 0.00 63 1017.0
20211021233144 82 162 0.0 0.0 0.00 0.00 0.00 62 1016.8
20211021232145 82 159 0.0 0.0 0.00 0.00 0.00 61 1016.8
20211021231144 82 145 0.0 0.0 0.00 0.00 0.00 61 1016.8
20211021230144 83 9 0.0 1.0 0.00 0.00 0.00 59 1016.7
20211021225145 83 115 0.0 1.0 0.00 0.00 0.00 60 1016.7
20211021224144 83 180 0.0 0.0 0.00 0.00 0.00 59 1016.7
20211021223145 84 141 0.0 0.0 0.00 0.00 0.00 59 1016.6
20211021222144 84 350 0.0 3.0 0.00 0.00 0.00 57 1016.8
20211021221144 84 331 0.0 0.0 0.00 0.00 0.00 58 1016.9
20211021220144 84 327 0.0 3.0 0.00 0.00 0.00 58 1017.0
20211021215145 84 244 0.0 0.0 0.00 0.00 0.00 58 1017.2
20211021214144 84 34 0.0 1.0 0.00 0.00 0.00 57 1017.3
20211021213145 84 328 0.0 0.0 0.00 0.00 0.00 55 1017.5
20211021212145 85 207 0.0 0.0 0.00 0.00 0.00 56 1017.6
20211021211144 85 20 0.0 0.0 0.00 0.00 0.00 56 1017.8
20211021210145 86 313 0.0 0.0 0.00 0.00 0.00 56 1017.9
20211021205145 86 50 0.0 0.0 0.00 0.00 0.00 55 1017.9
20211021204145 86 5 0.0 0.0 0.00 0.00 0.00 54 1017.9
20211021203145 86 351 0.0 0.0 0.00 0.00 0.00 54 1017.9
20211021202145 86 15 0.0 0.0 0.00 0.00 0.00 54 1017.9
20211021201145 86 53 0.0 0.0 0.00 0.00 0.00 55 1017.9